Weather History for El Centro, CA

Change the Weather History Date:

Tuesday, November 20, 2012

  Actual Average Record
Temperature  
Mean Temperature 64 °F -  
Max Temperature 80 °F 73 °F 87 °F (2008)
Min Temperature 48 °F 49 °F 41 °F (2000)
Degree Days  
Heating Degree Days 1    
Growing Degree Days 14 (Base 50)    
Moisture  
Dew Point 38 °F    
Average Humidity 44    
Maximum Humidity 66    
Minimum Humidity 20    
Precipitation  
Precipitation 0.00 in - - ()
Sea Level Pressure  
Sea Level Pressure 30.10 in    
Wind  
Wind Speed 5 mph (West)    
Max Wind Speed 9 mph    
Max Gust Speed -    
Visibility 10 miles    
Events      
Averages and records for this station are not official NWS values.
T = Trace of Precipitation, MM = Missing Value Source: NWS Daily Summary

Daily Weather History Graph

Daily Weather History Graph

Search for Another Location

Airport:

Trip Planner

Search our weather history database for the weather conditions in past years. The results will help you decide how hot, cold, wet, or windy it might be!

Date:

Astronomy

Nov. 20, 2012 Rise Set
Actual Time 6:17 AM PST 4:38 PM PST
Civil Twilight 5:51 AM PST 5:05 PM PST
Nautical Twilight 5:21 AM PST 5:35 PM PST
Astronomical Twilight 4:51 AM PST 6:04 PM PST
Moon 12:05 PM PST No Moon Set
Length of Visible Light 11h 13m
Length of Day
10h 20m
First Quarter, 52% of the Moon is Illuminated
Nov 20
First Quarter
Nov 28
Full
Dec 6
Last Quarter
Dec 13
New
Dec 19
First Quarter

Hourly Weather History & Observations

Time (PST) Temp. Dew Point Humidity Pressure Visibility Wind Dir Wind Speed Gust Speed Precip Events Conditions
12:56 AM 53.1 °F 39.0 °F 59% 30.17 in 10.0 mi WSW 4.6 mph - N/A   Clear
1:56 AM 52.0 °F 37.9 °F 59% 30.16 in 10.0 mi WNW 5.8 mph - N/A   Clear
2:56 AM 52.0 °F 37.0 °F 57% 30.15 in 10.0 mi West 8.1 mph - N/A   Clear
3:56 AM 51.1 °F 37.9 °F 61% 30.14 in 10.0 mi West 8.1 mph - N/A   Clear
4:56 AM 48.0 °F 37.0 °F 66% 30.15 in 10.0 mi WSW 5.8 mph - N/A   Clear
5:56 AM 52.0 °F 37.0 °F 57% 30.16 in 10.0 mi West 9.2 mph - N/A   Clear
6:56 AM 52.0 °F 37.9 °F 59% 30.17 in 10.0 mi West 9.2 mph - N/A   Clear
7:56 AM 57.9 °F 39.9 °F 51% 30.17 in 10.0 mi West 6.9 mph - N/A   Clear
8:56 AM 66.0 °F 42.1 °F 42% 30.17 in 10.0 mi WNW 5.8 mph - N/A   Clear
9:56 AM 73.0 °F 42.1 °F 33% 30.17 in 10.0 mi North 6.9 mph - N/A   Clear
10:56 AM 75.0 °F 41.0 °F 29% 30.14 in 10.0 mi NW 4.6 mph - N/A   Clear
11:56 AM 78.1 °F 39.9 °F 25% 30.10 in 10.0 mi NW 4.6 mph - N/A   Clear
12:56 PM 78.1 °F 37.9 °F 24% 30.06 in 10.0 mi NW 4.6 mph - N/A   Clear
1:56 PM 80.1 °F 37.9 °F 22% 30.04 in 10.0 mi Calm Calm - N/A   Clear
2:56 PM 80.1 °F 36.0 °F 20% 30.04 in 10.0 mi North 4.6 mph - N/A   Clear
3:56 PM 78.1 °F 39.9 °F 25% 30.02 in 10.0 mi NE 4.6 mph - N/A   Clear
4:56 PM 71.1 °F 39.0 °F 31% 30.02 in 10.0 mi East 3.5 mph - N/A   Clear
5:56 PM 64.9 °F 39.0 °F 39% 30.03 in 10.0 mi SSE 3.5 mph - N/A   Clear
6:56 PM 60.1 °F 35.1 °F 39% 30.04 in 10.0 mi Calm Calm - N/A   Clear
7:56 PM 57.0 °F 39.9 °F 53% 30.05 in 10.0 mi Calm Calm - N/A   Clear
8:56 PM 57.0 °F 39.0 °F 51% 30.06 in 10.0 mi Calm Calm - N/A   Clear
9:56 PM 57.0 °F 37.9 °F 49% 30.05 in 10.0 mi West 4.6 mph - N/A   Clear
10:56 PM 55.0 °F 37.0 °F 51% 30.04 in 10.0 mi WSW 5.8 mph - N/A   Clear
11:56 PM 52.0 °F 35.1 °F 53% 30.04 in 10.0 mi WSW 6.9 mph - N/A   Clear